Location: *
(49.5667°N, 1.3667°W)
Time: 15:28:11
(UTC+00:00)

In-Cosmos 22 - Pass Details

Date: 20 September 2019
Orbit: 785 x 877 km, 81.2° (Epoch: 15 October)

Event Time Altitude Azimuth Distance (km) Brightness Sun altitude
Rises 19:04:01 0° 351° (N) 3,304 7.6 -9.7°
Reaches altitude 10° 19:06:27 10° 356° (N) 2,379 6.8 -10.1°
Maximum altitude 19:11:41 52° 73° (ENE) 1,005 4.3 -10.9°
Drops below altitude 10° 19:17:00 10° 149° (SSE) 2,414 6.2 -11.8°
Enters shadow 19:18:26 - 153° (SSE) 2,957 6.6 -12.0°
